EW9704 Weather Reports


Display with metric or nautical units.
time (UTC)temp
F
wind
direction
speed
MPH
gust
MPH
rain 1hr
in
rain 24hr
in
rain mn
in
humidity
%
barometer
mb
20211025220047 87 152 0.0 8.0 0.00 0.00 0.00 57 1012.1
20211025214544 87 232 0.0 7.0 0.00 0.00 0.00 57 1012.2
20211025213039 87 259 0.0 8.0 0.00 0.00 0.00 54 1012.1
20211025211537 87 154 0.0 5.0 0.00 0.00 0.00 52 1011.9
20211025210056 86 162 3.0 7.0 0.00 0.00 0.00 55 1012.2
20211025204521 87 252 0.0 5.0 0.00 0.00 0.00 57 1012.2
20211025203043 86 212 0.0 9.0 0.00 0.00 0.00 51 1012.2
20211025201517 87 243 0.0 5.0 0.00 0.00 0.00 52 1012.3
20211025200006 86 151 3.0 7.0 0.00 0.00 0.00 54 1012.4
20211025194743 85 198 2.0 9.0 0.00 0.00 0.00 48 1012.5
20211025193121 85 154 1.0 7.0 0.00 0.00 0.00 49 1012.7
20211025191804 85 280 0.0 6.0 0.00 0.00 0.00 35 1012.9
20211025190121 85 212 1.0 7.0 0.00 0.00 0.00 42 1013.2
20211025184650 84 155 0.0 7.0 0.00 0.00 0.00 31 1013.5
20211025183216 82 205 4.0 8.0 0.00 0.00 0.00 28 1013.9
20211025181557 83 307 1.0 8.0 0.00 0.00 0.00 25 1014.1
20211025180037 81 209 0.0 4.0 0.00 0.00 0.00 6 1014.3
20211025174523 80 162 0.0 5.0 0.00 0.00 0.00 1 1014.4
20211025173115 79 293 0.0 2.0 0.00 0.00 0.00 1 1014.5
20211025171517 78 206 0.0 5.0 0.00 0.00 0.00 1 1014.6
20211025170016 77 295 0.0 1.0 0.00 0.00 0.00 1 1014.7
20211025164506 76 285 0.0 4.0 0.00 0.01 0.00 1 1014.7
20211025163002 75 266 0.0 5.0 0.00 0.01 0.00 1 1014.7
20211025161643 75 257 0.0 6.0 0.00 0.01 0.00 1 1014.6
20211025160123 75 295 0.0 3.0 0.00 0.01 0.00 1 1014.7
20211025154651 75 302 0.0 4.0 0.00 1.49 0.00 1 1014.9
20211025153118 75 289 0.0 4.0 0.00 1.49 0.00 1 1014.8
20211025151554 75 321 0.0 3.0 0.00 1.49 0.00 1 1014.9
20211025150103 75 238 0.0 5.0 0.00 1.49 0.00 1 1014.9
20211025144540 74 151 0.0 3.0 0.00 1.80 0.00 1 1014.8
20211025143101 74 290 0.0 5.0 0.00 1.80 0.00 1 1014.6
20211025141530 74 255 0.0 4.0 0.00 1.80 0.00 1 1014.4
20211025140025 74 252 0.0 0.0 0.00 1.80 0.00 1 1014.3
20211025134526 73 177 0.0 3.0 0.00 1.80 0.00 1 1014.2
20211025133008 73 272 0.0 2.0 0.00 1.80 0.00 1 1014.0
20211025131505 73 272 0.0 0.0 0.00 1.80 0.00 1 1013.9
20211025130126 72 272 0.0 0.0 0.00 1.80 0.00 1 1013.8
20211025124653 72 272 0.0 0.0 0.00 1.80 0.00 1 1013.6
20211025123119 72 273 0.0 0.0 0.00 1.80 0.00 1 1013.4
20211025121709 72 266 0.0 0.0 0.00 1.80 0.00 1 1013.2
20211025120138 72 266 0.0 0.0 0.00 1.80 0.00 1 1013.1
20211025114629 72 266 0.0 0.0 0.00 1.80 0.00 1 1013.1
20211025113104 72 266 0.0 0.0 0.00 1.80 0.00 1 1013.0
20211025111531 72 266 0.0 0.0 0.00 1.80 0.00 1 1012.8
20211025110054 72 266 0.0 0.0 0.00 1.80 0.00 1 1012.6
20211025104521 72 261 0.0 1.0 0.00 1.80 0.00 1 1012.3
20211025103101 72 268 1.0 6.0 0.00 1.80 0.00 1 1012.1
20211025101510 72 257 2.0 5.0 0.00 1.80 0.00 1 1012.0
20211025100014 71 273 1.0 5.0 0.00 1.80 0.00 1 1012.0
20211025093155 71 254 0.0 2.0 0.00 1.80 0.00 1 1012.0
20211025091618 71 255 0.0 0.0 0.00 1.80 0.00 1 1011.9
20211025090105 72 160 0.0 0.0 0.00 1.80 0.00 1 1011.9
20211025084628 72 160 0.0 2.0 0.00 1.80 0.00 1 1012.0
20211025083113 72 251 0.0 2.0 0.00 1.80 0.00 1 1011.9
20211025081603 72 266 1.0 3.0 0.00 1.80 0.00 1 1011.8
20211025080048 72 299 0.0 3.0 0.00 1.80 0.00 1 1011.9
20211025074531 73 291 0.0 4.0 0.00 1.80 0.00 1 1012.0
20211025073048 73 278 1.0 4.0 0.00 1.80 0.00 1 1012.0
20211025071551 73 180 2.0 6.0 0.00 1.80 0.00 1 1011.9
20211025070014 73 282 0.0 4.0 0.00 1.80 0.00 1 1011.8
20211025064510 73 259 1.0 7.0 0.00 1.80 0.00 1 1011.7
20211025063003 73 265 2.0 6.0 0.00 1.80 0.00 1 1011.7
20211025061616 73 198 1.0 7.0 0.00 1.80 0.00 1 1011.6
20211025060137 73 157 2.0 8.0 0.00 1.80 0.00 1 1011.5
20211025054624 73 238 2.0 7.0 0.00 1.80 0.00 1 1011.4
20211025053114 73 226 0.0 4.0 0.00 1.80 0.00 1 1011.3
20211025051554 72 255 1.0 3.0 0.00 1.80 0.00 1 1011.2
20211025050051 72 280 0.0 0.0 0.00 1.80 0.00 1 1011.3
20211025044701 71 281 0.0 1.0 0.00 1.80 1.80 1 1011.2
20211025043036 70 295 0.0 0.0 0.00 1.80 1.80 1 1011.2
20211025041551 69 295 0.0 1.0 0.00 1.80 1.80 1 1011.0
20211025040042 69 293 0.0 0.0 0.00 1.80 1.80 1 1010.9
20211025034538 69 293 0.0 1.0 0.00 1.80 1.80 1 1011.0
20211025033015 69 293 0.0 0.0 0.00 1.80 1.80 1 1010.8
20211025031534 69 293 0.0 0.0 0.00 1.80 1.80 1 1010.7
20211025030015 69 293 0.0 1.0 0.00 1.80 1.80 1 1010.5
20211025024651 69 293 0.0 0.0 0.00 1.80 1.80 1 1010.4
20211025023216 70 293 0.0 1.0 0.00 1.80 1.80 1 1010.3
20211025021605 70 293 0.0 1.0 0.00 1.80 1.80 1 1010.2
20211025020050 70 293 0.0 0.0 0.00 1.80 1.80 1 1010.0
20211025014718 71 293 0.0 1.0 0.00 1.80 1.80 1 1010.0
20211025013121 71 293 0.0 0.0 0.00 1.80 1.80 1 1009.8
20211025011552 72 293 0.0 0.0 0.00 1.80 1.80 1 1009.9
20211025010047 72 293 0.0 0.0 0.00 1.80 1.80 1 1009.6
20211025004529 73 293 0.0 0.0 0.00 1.80 1.80 5 1009.6
20211025003030 75 293 0.0 0.0 0.00 1.80 1.80 17 1009.7
20211025001533 76 293 0.0 0.0 0.00 1.80 1.80 33 1009.4
20211025000023 78 293 0.0 0.0 0.00 1.80 1.80 46 1009.0
20211024234534 81 293 0.0 0.0 0.00 1.80 1.80 57 1008.9
20211024233006 84 293 0.0 1.0 0.00 1.80 1.80 61 1008.6
20211024231656 85 293 0.0 1.0 0.00 1.80 1.80 61 1008.7
20211024224614 85 255 0.0 6.0 0.00 1.80 1.80 61 1008.7
20211024223243 85 252 4.0 7.0 0.00 1.80 1.80 61 1008.7
20211024221549 83 258 2.0 6.0 0.00 1.80 1.80 62 1008.8